Location: Sungai Bunut
(2.6333°N, 113.7333°E)
Time: 10:23:38
(UTC+00:00)

Transit 2A Rocket - Pass Details

Date: 11 December 2023
Orbit: 590 x 905 km, 66.7° (Epoch: 01 March)

Event Time Altitude Azimuth Distance (km) Brightness Sun altitude
Rises 21:14:37 0° 11° (NNE) 2,987 7.9 -15.7°
Reaches altitude 10° 21:17:41 10° 33° (NNE) 2,138 7.4 -15.0°
Maximum altitude 21:20:39 16° 71° (ENE) 1,821 7.6 -14.3°
Drops below altitude 10° 21:23:45 10° 109° (ESE) 2,270 8.9 -13.6°
Sets 21:27:08 0° 129° (SE) 3,270 9.9 -12.8°
